• Em Portugal
  • Lista de países
  • Para 7 dias
  • Temperatura da água
  • Mapas de satélite
  • Mapa do tempo
  • Widgets de tempo
  • user-avatar
    Iniciar Sessão

    Previsão horária em Karbala

    Hoje, 13 Novembro, Terça-feira

    Tempo Temperatura Precipitação Vento Pressão Humidade
    00:00 +21°C° 0 mm 1 m/s 760 mmHg 47%
    01:00 +21°C° 0 mm 1 m/s 760 mmHg 48%
    02:00 +21°C° 0 mm 1 m/s 760 mmHg 48%
    03:00 +20°C° 0 mm 1 m/s 760 mmHg 50%
    04:00 +20°C° 0 mm 1 m/s 760 mmHg 51%
    05:00 +20°C° 0 mm 1 m/s 760 mmHg 52%
    06:00 +20°C° 0 mm 1 m/s 760 mmHg 53%
    07:00 +21°C° 0 mm 1 m/s 760 mmHg 51%
    08:00 +21°C° 0 mm 1 m/s 760 mmHg 48%
    09:00 +22°C° 0 mm 1 m/s 760 mmHg 45%
    10:00 +23°C° 0 mm 1 m/s 760 mmHg 43%
    11:00 +24°C° 0 mm 1 m/s 760 mmHg 40%
    12:00 +25°C° 0 mm 1 m/s 760 mmHg 38%
    13:00 +25°C° 0 mm 1 m/s 759 mmHg 37%
    14:00 +25°C° 0 mm 1 m/s 759 mmHg 36%
    15:00 +26°C° 0 mm 1 m/s 758 mmHg 35%
    16:00 +25°C° 0 mm 1 m/s 758 mmHg 36%
    17:00 +25°C° 0 mm 1 m/s 758 mmHg 38%
    18:00 +24°C° 0 mm 1 m/s 758 mmHg 40%
    19:00 +24°C° 0 mm 1 m/s 758 mmHg 41%
    20:00 +23°C° 0 mm 1 m/s 758 mmHg 42%
    21:00 +23°C° 0 mm 1 m/s 758 mmHg 43%
    22:00 +22°C° 0 mm 1 m/s 758 mmHg 43%
    23:00 +22°C° 0 mm 1 m/s 758 mmHg 44%

    Amanhã, 14 Novembro, Quarta-feira

    Tempo Temperatura Precipitação Vento Pressão Humidade
    00:00 +22°C° 0 mm 1 m/s 757 mmHg 44%
    01:00 +21°C° 0 mm 1 m/s 757 mmHg 44%
    02:00 +21°C° 0 mm 1 m/s 757 mmHg 44%
    03:00 +21°C° 0 mm 1 m/s 757 mmHg 44%
    04:00 +21°C° 0 mm 1 m/s 757 mmHg 44%
    05:00 +19°C° 0 mm 2 m/s 756 mmHg 44%
    06:00 +19°C° 0 mm 2 m/s 756 mmHg 44%
    07:00 +20°C° 0 mm 2 m/s 756 mmHg 42%
    08:00 +21°C° 0 mm 2 m/s 756 mmHg 39%
    09:00 +23°C° 0 mm 2 m/s 756 mmHg 37%
    10:00 +23°C° 0 mm 2 m/s 756 mmHg 36%
    11:00 +24°C° 0 mm 2 m/s 756 mmHg 35%
    12:00 +25°C° 0 mm 3 m/s 756 mmHg 34%
    13:00 +24°C° 0.1 mm 2 m/s 755 mmHg 35%
    14:00 +24°C° 0.1 mm 2 m/s 755 mmHg 35%
    15:00 +24°C° 0.1 mm 2 m/s 755 mmHg 36%
    16:00 +24°C° 0.1 mm 2 m/s 755 mmHg 38%
    17:00 +23°C° 0.1 mm 2 m/s 755 mmHg 41%
    18:00 +22°C° 0.1 mm 3 m/s 755 mmHg 43%
    19:00 +21°C° 0 mm 3 m/s 755 mmHg 45%
    20:00 +21°C° 0 mm 3 m/s 755 mmHg 47%
    21:00 +20°C° 0 mm 3 m/s 755 mmHg 48%
    22:00 +20°C° 0 mm 3 m/s 755 mmHg 52%
    23:00 +20°C° 0 mm 3 m/s 755 mmHg 55%

    Depois de amanhã, 15 Novembro, Quinta-feira

    Tempo Temperatura Precipitação Vento Pressão Humidade
    00:00 +19°C° 0 mm 3 m/s 755 mmHg 58%
    01:00 +19°C° 0 mm 3 m/s 755 mmHg 61%
    02:00 +19°C° 0 mm 3 m/s 755 mmHg 65%
    03:00 +18°C° 0 mm 3 m/s 755 mmHg 68%
    04:00 +18°C° 0.1 mm 3 m/s 755 mmHg 70%
    05:00 +18°C° 0.1 mm 3 m/s 755 mmHg 73%
    06:00 +18°C° 0.1 mm 3 m/s 755 mmHg 75%
    07:00 +19°C° 0.2 mm 3 m/s 756 mmHg 76%
    08:00 +19°C° 0.2 mm 4 m/s 756 mmHg 76%
    09:00 +20°C° 0.2 mm 4 m/s 757 mmHg 77%
    10:00 +21°C° 0.4 mm 4 m/s 756 mmHg 74%
    11:00 +22°C° 0.4 mm 3 m/s 756 mmHg 71%
    12:00 +22°C° 0.4 mm 3 m/s 756 mmHg 68%
    13:00 +24°C° 0.2 mm 3 m/s 756 mmHg 67%
    14:00 +24°C° 0.2 mm 2 m/s 755 mmHg 67%
    15:00 +24°C° 0.2 mm 1 m/s 755 mmHg 66%
    16:00 +24°C° 0.2 mm 1 m/s 755 mmHg 68%
    17:00 +23°C° 0.2 mm 1 m/s 755 mmHg 70%
    18:00 +23°C° 0.2 mm 1 m/s 756 mmHg 72%
    19:00 +22°C° 0.2 mm 1 m/s 756 mmHg 73%
    20:00 +22°C° 0.2 mm 1 m/s 756 mmHg 75%
    21:00 +22°C° 0.2 mm 1 m/s 757 mmHg 77%
    22:00 +21°C° 0.4 mm 1 m/s 757 mmHg 78%
    23:00 +20°C° 0.4 mm 2 m/s 757 mmHg 79%

    16 Novembro, Sexta-feira

    Tempo Temperatura Precipitação Vento Pressão Humidade
    00:00 +20°C° 0.4 mm 2 m/s 757 mmHg 80%
    01:00 +21°C° 0.1 mm 1 m/s 757 mmHg 81%
    02:00 +20°C° 0.1 mm 1 m/s 757 mmHg 83%
    03:00 +20°C° 0.1 mm 1 m/s 757 mmHg 84%
    04:00 +20°C° 0 mm 1 m/s 757 mmHg 84%
    05:00 +20°C° 0 mm 1 m/s 757 mmHg 84%
    06:00 +20°C° 0 mm 1 m/s 758 mmHg 84%
    07:00 +20°C° 0 mm 2 m/s 758 mmHg 79%
    08:00 +20°C° 0 mm 2 m/s 759 mmHg 74%
    09:00 +21°C° 0 mm 2 m/s 759 mmHg 70%
    10:00 +23°C° 0 mm 2 m/s 759 mmHg 64%
    11:00 +24°C° 0 mm 2 m/s 759 mmHg 58%
    12:00 +25°C° 0 mm 2 m/s 759 mmHg 53%
    13:00 +25°C° 0 mm 2 m/s 759 mmHg 50%
    14:00 +26°C° 0 mm 2 m/s 759 mmHg 48%
    15:00 +26°C° 0 mm 2 m/s 759 mmHg 45%
    16:00 +25°C° 0 mm 2 m/s 759 mmHg 47%
    17:00 +25°C° 0 mm 1 m/s 759 mmHg 49%
    18:00 +24°C° 0 mm 1 m/s 760 mmHg 51%
    19:00 +24°C° 0 mm 1 m/s 760 mmHg 52%
    20:00 +23°C° 0 mm 1 m/s 760 mmHg 54%
    21:00 +23°C° 0 mm 1 m/s 761 mmHg 55%
    22:00 +23°C° 0 mm 1 m/s 761 mmHg 56%
    23:00 +22°C° 0 mm 1 m/s 761 mmHg 58%

    17 Novembro, Sábado

    Tempo Temperatura Precipitação Vento Pressão Humidade
    00:00 +22°C° 0 mm 1 m/s 761 mmHg 59%
    01:00 +22°C° 0 mm 1 m/s 761 mmHg 60%
    02:00 +21°C° 0 mm 1 m/s 761 mmHg 61%
    03:00 +21°C° 0 mm 1 m/s 761 mmHg 62%
    04:00 +21°C° 0 mm 1 m/s 761 mmHg 64%
    05:00 +20°C° 0 mm 1 m/s 761 mmHg 65%
    06:00 +20°C° 0 mm 1 m/s 761 mmHg 67%
    07:00 +21°C° 0 mm 1 m/s 762 mmHg 63%
    08:00 +22°C° 0 mm 1 m/s 762 mmHg 60%
    09:00 +21°C° 0 mm 0 m/s 762 mmHg 56%
    10:00 +24°C° 0 mm 1 m/s 762 mmHg 52%
    11:00 +25°C° 0 mm 1 m/s 762 mmHg 48%
    12:00 +25°C° 0 mm 1 m/s 761 mmHg 43%
    13:00 +26°C° 0 mm 1 m/s 761 mmHg 40%
    14:00 +26°C° 0 mm 2 m/s 761 mmHg 37%
    15:00 +26°C° 0 mm 2 m/s 760 mmHg 34%
    16:00 +26°C° 0 mm 2 m/s 760 mmHg 35%
    17:00 +25°C° 0 mm 1 m/s 761 mmHg 37%
    18:00 +24°C° 0 mm 1 m/s 761 mmHg 39%
    19:00 +24°C° 0 mm 1 m/s 761 mmHg 41%
    20:00 +23°C° 0 mm 1 m/s 761 mmHg 43%
    21:00 +23°C° 0 mm 1 m/s 761 mmHg 45%
    22:00 +22°C° 0 mm 1 m/s 761 mmHg 45%
    23:00 +22°C° 0 mm 1 m/s 760 mmHg 46%

    18 Novembro, Domingo

    Tempo Temperatura Precipitação Vento Pressão Humidade
    00:00 +22°C° 0 mm 1 m/s 760 mmHg 47%
    01:00 +21°C° 0 mm 1 m/s 760 mmHg 47%
    02:00 +21°C° 0 mm 1 m/s 760 mmHg 48%
    03:00 +21°C° 0 mm 1 m/s 760 mmHg 49%
    04:00 +21°C° 0 mm 1 m/s 760 mmHg 49%
    05:00 +20°C° 0 mm 1 m/s 760 mmHg 50%
    06:00 +20°C° 0 mm 1 m/s 760 mmHg 50%
    07:00 +21°C° 0 mm 1 m/s 760 mmHg 47%
    08:00 +22°C° 0 mm 1 m/s 760 mmHg 44%
    09:00 +23°C° 0 mm 1 m/s 761 mmHg 40%
    10:00 +24°C° 0 mm 2 m/s 760 mmHg 37%
    11:00 +25°C° 0 mm 2 m/s 760 mmHg 34%
    12:00 +26°C° 0 mm 2 m/s 759 mmHg 31%
    13:00 +27°C° 0 mm 2 m/s 759 mmHg 30%
    14:00 +27°C° 0 mm 2 m/s 759 mmHg 29%
    15:00 +27°C° 0 mm 3 m/s 758 mmHg 28%
    16:00 +26°C° 0 mm 2 m/s 758 mmHg 30%
    17:00 +25°C° 0 mm 1 m/s 758 mmHg 33%
    18:00 +25°C° 0 mm 1 m/s 758 mmHg 36%
    19:00 +24°C° 0 mm 1 m/s 758 mmHg 36%
    20:00 +24°C° 0 mm 1 m/s 758 mmHg 36%
    21:00 +24°C° 0 mm 2 m/s 759 mmHg 37%
    22:00 +23°C° 0 mm 2 m/s 758 mmHg 38%
    23:00 +23°C° 0 mm 2 m/s 758 mmHg 38%
    Mostrar mais